{"data":{"norad_id":68685,"intl_designator":"2026-077Z","name":"STARLINK-36278","alt_names":[],"object_type":"PAYLOAD","status":"ACTIVE","operator":null,"country":"US","launch_date":"2026-04-11","launch_site_code":"AFWTR","launch_vehicle":null,"mission":null,"orbit_class":"UNKNOWN","rcs_meters":null,"size_class":null,"mass_kg":null,"dimensions":null,"purposes":["comms"],"wikipedia_slug":null,"has_3d_model":false,"image_url":null,"decayed_at":null,"tle_current":{"epoch":"2026-05-25T04:22:45.126336Z","epoch_age_seconds":55341,"freshness":"FRESH","line1":"1 68685U 26077Z   26145.18246674  .00266102  00000+0  17308-2 0  9998","line2":"2 68685  97.2859  17.8722 0001308  77.3431 282.7980 15.75177456  6953","mean_motion":15.75177456,"eccentricity":0.0001308,"inclination_deg":97.2859,"raan_deg":17.8722,"arg_perigee_deg":77.3431,"mean_anomaly_deg":282.798,"bstar":0.0017308,"rev_number":695,"period_min":91.418271288413,"perigee_km":343.24698512191,"apogee_km":345.00552918998,"semimajor_km":6722.2632571559,"source":"CELESTRAK","updated_at":"2026-05-25T13:38:21.996848Z"}}}